Year,Month,Day,Hour,Minute,Value (Times are PST for temperature in C)
2016,11,06,00,00,11.30
2016,11,06,00,01,11.30
2016,11,06,00,02,11.30
2016,11,06,00,03,11.30
2016,11,06,00,04,11.30
2016,11,06,00,05,11.30
2016,11,06,00,06,11.30
2016,11,06,00,07,11.30
2016,11,06,00,08,11.30
2016,11,06,00,09,11.30
2016,11,06,00,10,11.30
2016,11,06,00,11,11.30
2016,11,06,00,12,11.30
2016,11,06,00,13,11.30
2016,11,06,00,14,11.30
2016,11,06,00,15,11.30
2016,11,06,00,16,11.30
2016,11,06,00,17,11.30
2016,11,06,00,18,11.30
2016,11,06,00,19,11.30
2016,11,06,00,20,11.30
2016,11,06,00,21,11.30
2016,11,06,00,22,11.30
2016,11,06,00,23,11.30
2016,11,06,00,24,11.30
2016,11,06,00,25,11.30
2016,11,06,00,26,11.30
2016,11,06,00,27,11.30
2016,11,06,00,28,11.30
2016,11,06,00,29,11.30
2016,11,06,00,30,11.30
2016,11,06,00,31,11.30
2016,11,06,00,32,11.30
2016,11,06,00,33,11.30
2016,11,06,00,34,11.30
2016,11,06,00,35,11.30
2016,11,06,00,36,11.30
2016,11,06,00,37,11.30
2016,11,06,00,38,11.30
2016,11,06,00,39,11.30
2016,11,06,00,40,11.30
2016,11,06,00,41,11.30
2016,11,06,00,42,11.30
2016,11,06,00,43,11.30
2016,11,06,00,44,11.30
2016,11,06,00,45,11.30
2016,11,06,00,46,11.30
2016,11,06,00,47,11.30
2016,11,06,00,48,11.30
2016,11,06,00,49,11.30
2016,11,06,00,50,11.30
2016,11,06,00,51,11.30
2016,11,06,00,52,11.30
2016,11,06,00,53,11.30
2016,11,06,00,54,11.30
2016,11,06,00,55,11.30
2016,11,06,00,56,11.30
2016,11,06,00,57,11.30
2016,11,06,00,58,11.30
2016,11,06,00,59,11.30
2016,11,06,01,00,11.30
2016,11,06,01,01,11.30
2016,11,06,01,02,11.30
2016,11,06,01,03,11.30
2016,11,06,01,04,11.30
2016,11,06,01,05,11.30
2016,11,06,01,06,11.30
2016,11,06,01,07,11.30
2016,11,06,01,08,11.30
2016,11,06,01,09,11.30
2016,11,06,01,10,11.30
2016,11,06,01,11,11.30
2016,11,06,01,12,11.20
2016,11,06,01,13,11.20
2016,11,06,01,14,11.20
2016,11,06,01,15,11.20
2016,11,06,01,16,11.20
2016,11,06,01,17,11.20
2016,11,06,01,18,11.20
2016,11,06,01,19,11.20
2016,11,06,01,20,11.20
2016,11,06,01,21,11.20
2016,11,06,01,22,11.20
2016,11,06,01,23,11.20
2016,11,06,01,24,11.20
2016,11,06,01,25,11.20
2016,11,06,01,26,11.20
2016,11,06,01,27,11.20
2016,11,06,01,28,11.20
2016,11,06,01,29,11.20
2016,11,06,01,30,11.20
2016,11,06,01,31,11.20
2016,11,06,01,32,11.20
2016,11,06,01,33,11.20
2016,11,06,01,34,11.20
2016,11,06,01,35,11.20
2016,11,06,01,36,11.20
2016,11,06,01,38,11.20
2016,11,06,01,39,11.20
2016,11,06,01,40,11.20
2016,11,06,01,41,11.20
2016,11,06,01,42,11.20
2016,11,06,01,43,11.20
2016,11,06,01,44,11.20
2016,11,06,01,45,11.20
2016,11,06,01,47,11.20
2016,11,06,01,48,11.20
2016,11,06,01,57,11.10
2016,11,06,13,30,13.30
2016,11,06,13,31,13.30
2016,11,06,13,32,13.30
2016,11,06,13,33,13.30
2016,11,06,13,34,13.40
2016,11,06,13,35,13.40
2016,11,06,13,36,13.40
2016,11,06,13,37,13.40
2016,11,06,13,38,13.30
2016,11,06,13,39,13.30
2016,11,06,13,40,13.30
2016,11,06,13,41,13.30
2016,11,06,13,42,13.40
2016,11,06,13,43,13.40
2016,11,06,13,44,13.50
2016,11,06,13,45,13.60
2016,11,06,13,46,13.60
2016,11,06,13,47,13.70
2016,11,06,13,48,13.70
2016,11,06,13,49,13.60
2016,11,06,13,50,13.60
2016,11,06,13,51,13.60
2016,11,06,13,52,13.60
2016,11,06,13,53,13.60
2016,11,06,13,54,13.60
2016,11,06,13,55,13.50
2016,11,06,13,56,13.50
2016,11,06,13,57,13.60
2016,11,06,13,58,13.60
2016,11,06,13,59,13.60
2016,11,06,14,00,13.60
2016,11,06,14,01,13.60
2016,11,06,14,02,13.60
2016,11,06,14,03,13.60
2016,11,06,14,04,13.50
2016,11,06,14,05,13.40
2016,11,06,14,06,13.40
2016,11,06,14,07,13.40
2016,11,06,14,08,13.40
2016,11,06,14,09,13.40
2016,11,06,14,10,13.50
2016,11,06,14,11,13.50
2016,11,06,14,12,13.50
2016,11,06,14,13,13.60
2016,11,06,14,14,13.60
2016,11,06,14,15,13.60
2016,11,06,14,16,13.50
2016,11,06,14,17,13.50
2016,11,06,14,18,13.40
2016,11,06,14,19,13.40
2016,11,06,14,20,13.40
2016,11,06,14,21,13.40
2016,11,06,14,22,13.30
2016,11,06,14,23,13.30
2016,11,06,14,24,13.20
2016,11,06,14,25,13.20
2016,11,06,14,26,13.10
2016,11,06,14,27,13.00
2016,11,06,14,28,13.00
2016,11,06,14,29,12.90
2016,11,06,14,30,12.90
2016,11,06,14,31,12.80
2016,11,06,14,32,12.80
2016,11,06,14,33,12.80
2016,11,06,14,34,12.80
2016,11,06,14,35,12.70
2016,11,06,14,36,12.70
2016,11,06,14,37,12.70
2016,11,06,14,38,12.70
2016,11,06,14,39,12.70
2016,11,06,14,40,12.60
2016,11,06,14,41,12.60
2016,11,06,14,42,12.60
2016,11,06,14,43,12.60
2016,11,06,14,44,12.60
2016,11,06,14,45,12.60
2016,11,06,14,46,12.60
2016,11,06,14,47,12.70
2016,11,06,14,48,12.70
2016,11,06,14,49,12.70
2016,11,06,14,50,12.70
2016,11,06,14,51,12.70
2016,11,06,14,52,12.60
2016,11,06,14,53,12.60
2016,11,06,14,54,12.60
2016,11,06,14,55,12.60
2016,11,06,14,56,12.60
2016,11,06,14,57,12.60
2016,11,06,14,58,12.60
2016,11,06,14,59,12.60
2016,11,06,15,00,12.60
2016,11,06,15,01,12.60
2016,11,06,15,02,12.60
2016,11,06,15,03,12.60
2016,11,06,15,04,12.60
2016,11,06,15,05,12.60
2016,11,06,15,06,12.60
2016,11,06,15,07,12.60
2016,11,06,15,08,12.60
2016,11,06,15,09,12.60
2016,11,06,15,10,12.60
2016,11,06,15,11,12.60
2016,11,06,15,12,12.60
2016,11,06,15,13,12.60
2016,11,06,15,14,12.50
2016,11,06,15,15,12.50
2016,11,06,15,16,12.50
2016,11,06,15,17,12.50
2016,11,06,15,18,12.50
2016,11,06,15,19,12.50
2016,11,06,15,20,12.50
2016,11,06,15,21,12.50
2016,11,06,15,22,12.50
2016,11,06,15,23,12.50
2016,11,06,15,24,12.50
2016,11,06,15,25,12.50
2016,11,06,15,26,12.40
2016,11,06,15,27,12.40
2016,11,06,15,28,12.40
2016,11,06,15,29,12.40
2016,11,06,15,30,12.40
2016,11,06,15,31,12.40
2016,11,06,15,32,12.40
2016,11,06,15,33,12.40
2016,11,06,15,34,12.30
2016,11,06,15,35,12.30
2016,11,06,15,36,12.30
2016,11,06,15,37,12.30
2016,11,06,15,38,12.30
2016,11,06,15,39,12.30
2016,11,06,15,40,12.30
2016,11,06,15,41,12.20
2016,11,06,15,42,12.20
2016,11,06,15,43,12.20
2016,11,06,15,44,12.20
2016,11,06,15,45,12.20
2016,11,06,15,46,12.20
2016,11,06,15,47,12.20
2016,11,06,15,48,12.20
2016,11,06,15,49,12.20
2016,11,06,15,50,12.20
2016,11,06,15,51,12.10
2016,11,06,15,52,12.10
2016,11,06,15,53,12.10
2016,11,06,15,54,12.10
2016,11,06,15,55,12.10
2016,11,06,15,56,12.10
2016,11,06,15,57,12.10
2016,11,06,15,58,12.00
2016,11,06,15,59,12.00
2016,11,06,16,00,12.00
2016,11,06,16,01,12.00
2016,11,06,16,02,11.90
2016,11,06,16,03,11.90
2016,11,06,16,04,11.90
2016,11,06,16,05,11.90
2016,11,06,16,06,11.90
2016,11,06,16,07,11.90
2016,11,06,16,08,11.90
2016,11,06,16,09,11.90
2016,11,06,16,10,11.90
2016,11,06,16,11,11.80
2016,11,06,16,12,11.80
2016,11,06,16,13,11.80
2016,11,06,16,14,11.80
2016,11,06,16,15,11.80
2016,11,06,16,16,11.70
2016,11,06,16,17,11.70
2016,11,06,16,18,11.70
2016,11,06,16,19,11.70
2016,11,06,16,20,11.70
2016,11,06,16,21,11.70
2016,11,06,16,22,11.60
2016,11,06,16,23,11.60
2016,11,06,16,24,11.60
2016,11,06,16,25,11.60
2016,11,06,16,26,11.60
2016,11,06,16,27,11.60
2016,11,06,16,28,11.60
2016,11,06,16,29,11.50
2016,11,06,16,30,11.50
2016,11,06,16,31,11.50
2016,11,06,16,32,11.40
2016,11,06,16,33,11.40
2016,11,06,16,34,11.40
2016,11,06,16,35,11.40
2016,11,06,16,36,11.40
2016,11,06,16,37,11.40
2016,11,06,16,38,11.30
2016,11,06,16,39,11.30
2016,11,06,16,40,11.30
2016,11,06,16,41,11.30
2016,11,06,16,42,11.30
2016,11,06,16,43,11.30
2016,11,06,16,44,11.30
2016,11,06,16,45,11.20
2016,11,06,16,46,11.20
2016,11,06,16,47,11.20
2016,11,06,16,48,11.20
2016,11,06,16,49,11.20
2016,11,06,16,50,11.20
2016,11,06,16,51,11.20
2016,11,06,16,52,11.20
2016,11,06,16,53,11.10
2016,11,06,16,54,11.10
2016,11,06,16,55,11.10
2016,11,06,16,56,11.10
2016,11,06,16,57,11.10
2016,11,06,16,58,11.10
2016,11,06,16,59,11.10
2016,11,06,17,00,11.00
2016,11,06,17,01,11.00
2016,11,06,17,02,11.00
2016,11,06,17,03,11.00
2016,11,06,17,04,11.00
2016,11,06,17,05,10.90
2016,11,06,17,06,10.90
2016,11,06,17,07,10.90
2016,11,06,17,08,10.90
2016,11,06,17,09,10.90
2016,11,06,17,10,10.90
2016,11,06,17,11,10.90
2016,11,06,17,12,10.90
2016,11,06,17,13,10.90
2016,11,06,17,14,10.90
2016,11,06,17,15,10.90
2016,11,06,17,16,10.90
2016,11,06,17,17,10.90
2016,11,06,17,18,10.90
2016,11,06,17,19,10.90
2016,11,06,17,20,10.90
2016,11,06,17,21,10.90
2016,11,06,17,22,10.90
2016,11,06,17,23,10.90
2016,11,06,17,24,10.90
2016,11,06,17,25,10.90
2016,11,06,17,26,10.90
2016,11,06,17,27,10.80
2016,11,06,17,28,10.80
2016,11,06,17,29,10.80
2016,11,06,17,30,10.80
2016,11,06,17,31,10.80
2016,11,06,17,32,10.80
2016,11,06,17,33,10.80
2016,11,06,17,34,10.80
2016,11,06,17,35,10.80
2016,11,06,17,36,10.80
2016,11,06,17,37,10.80
2016,11,06,17,38,10.80
2016,11,06,17,39,10.80
2016,11,06,17,40,10.80
2016,11,06,17,41,10.80
2016,11,06,17,42,10.70
2016,11,06,17,43,10.70
2016,11,06,17,44,10.70
2016,11,06,17,45,10.70
2016,11,06,17,46,10.70
2016,11,06,17,47,10.70
2016,11,06,17,48,10.70
2016,11,06,17,49,10.70
2016,11,06,17,50,10.70
2016,11,06,17,51,10.70
2016,11,06,17,52,10.70
2016,11,06,17,53,10.70
2016,11,06,17,54,10.60
2016,11,06,17,55,10.60
2016,11,06,17,56,10.60
2016,11,06,17,57,10.60
2016,11,06,17,58,10.60
2016,11,06,17,59,10.60
2016,11,06,18,00,10.60
2016,11,06,18,01,10.60
2016,11,06,18,02,10.60
2016,11,06,18,03,10.60
2016,11,06,18,04,10.60
2016,11,06,18,05,10.60
2016,11,06,18,06,10.50
2016,11,06,18,07,10.50
2016,11,06,18,08,10.50
2016,11,06,18,09,10.50
2016,11,06,18,10,10.50
2016,11,06,18,11,10.50
2016,11,06,18,12,10.50
2016,11,06,18,13,10.50
2016,11,06,18,14,10.40
2016,11,06,18,15,10.40
2016,11,06,18,16,10.40
2016,11,06,18,17,10.40
2016,11,06,18,18,10.40
2016,11,06,18,19,10.40
2016,11,06,18,20,10.40
2016,11,06,18,21,10.40
2016,11,06,18,22,10.40
2016,11,06,18,23,10.40
2016,11,06,18,24,10.40
2016,11,06,18,25,10.40
2016,11,06,18,26,10.40
2016,11,06,18,27,10.40
2016,11,06,18,28,10.30
2016,11,06,18,29,10.30
2016,11,06,18,30,10.30
2016,11,06,18,31,10.30
2016,11,06,18,32,10.30
2016,11,06,18,33,10.30
2016,11,06,18,34,10.30
2016,11,06,18,35,10.30
2016,11,06,18,36,10.30
2016,11,06,18,37,10.30
2016,11,06,18,38,10.30
2016,11,06,18,39,10.30
2016,11,06,18,40,10.30
2016,11,06,18,41,10.30
2016,11,06,18,42,10.30
2016,11,06,18,43,10.30
2016,11,06,18,44,10.30
2016,11,06,18,45,10.30
2016,11,06,18,46,10.30
2016,11,06,18,47,10.30
2016,11,06,18,48,10.30
2016,11,06,18,49,10.30
2016,11,06,18,50,10.20
2016,11,06,18,51,10.20
2016,11,06,18,52,10.20
2016,11,06,18,53,10.20
2016,11,06,18,54,10.20
2016,11,06,18,55,10.20
2016,11,06,18,56,10.20
2016,11,06,18,57,10.20
2016,11,06,18,58,10.20
2016,11,06,18,59,10.20
2016,11,06,19,00,10.20
2016,11,06,19,01,10.20
2016,11,06,19,02,10.20
2016,11,06,19,03,10.20
2016,11,06,19,04,10.20
2016,11,06,19,05,10.20
2016,11,06,19,06,10.20
2016,11,06,19,07,10.20
2016,11,06,19,08,10.20
2016,11,06,19,09,10.20
2016,11,06,19,10,10.20
2016,11,06,19,11,10.20
2016,11,06,19,12,10.20
2016,11,06,19,13,10.20
2016,11,06,19,14,10.30
2016,11,06,19,15,10.30
2016,11,06,19,16,10.30
2016,11,06,19,17,10.30
2016,11,06,19,18,10.30
2016,11,06,19,19,10.30
2016,11,06,19,20,10.30
2016,11,06,19,21,10.30
2016,11,06,19,22,10.30
2016,11,06,19,23,10.30
2016,11,06,19,24,10.30
2016,11,06,19,25,10.30
2016,11,06,19,26,10.30
2016,11,06,19,27,10.30
2016,11,06,19,28,10.30
2016,11,06,19,29,10.40
2016,11,06,19,30,10.40
2016,11,06,19,31,10.40
2016,11,06,19,32,10.40
2016,11,06,19,33,10.40
2016,11,06,19,34,10.40
2016,11,06,19,35,10.40
2016,11,06,19,36,10.40
2016,11,06,19,37,10.40
2016,11,06,19,38,10.40
2016,11,06,19,39,10.40
2016,11,06,19,40,10.40
2016,11,06,19,41,10.40
2016,11,06,19,42,10.40
2016,11,06,19,43,10.40
2016,11,06,19,44,10.40
2016,11,06,19,45,10.40
2016,11,06,19,46,10.40
2016,11,06,19,47,10.40
2016,11,06,19,48,10.40
2016,11,06,19,49,10.40
2016,11,06,19,50,10.40
2016,11,06,19,51,10.40
2016,11,06,19,52,10.40
2016,11,06,19,53,10.50
2016,11,06,19,54,10.50
2016,11,06,19,55,10.50
2016,11,06,19,56,10.50
2016,11,06,19,57,10.50
2016,11,06,19,58,10.50
2016,11,06,19,59,10.50
2016,11,06,20,00,10.50
2016,11,06,20,01,10.50
2016,11,06,20,02,10.50
2016,11,06,20,03,10.50
2016,11,06,20,04,10.50
2016,11,06,20,05,10.50
2016,11,06,20,06,10.50
2016,11,06,20,07,10.50
2016,11,06,20,08,10.50
2016,11,06,20,09,10.50
2016,11,06,20,10,10.50
2016,11,06,20,11,10.50
2016,11,06,20,12,10.50
2016,11,06,20,13,10.50
2016,11,06,20,14,10.50
2016,11,06,20,15,10.50
2016,11,06,20,16,10.50
2016,11,06,20,17,10.50
2016,11,06,20,18,10.50
2016,11,06,20,19,10.50
2016,11,06,20,20,10.50
2016,11,06,20,21,10.50
2016,11,06,20,22,10.50
2016,11,06,20,23,10.50
2016,11,06,20,24,10.50
2016,11,06,20,25,10.50
2016,11,06,20,26,10.50
2016,11,06,20,27,10.50
2016,11,06,20,28,10.50
2016,11,06,20,29,10.50
2016,11,06,20,30,10.50
2016,11,06,20,31,10.40
2016,11,06,20,32,10.40
2016,11,06,20,33,10.40
2016,11,06,20,34,10.40
2016,11,06,20,35,10.40
2016,11,06,20,36,10.50
2016,11,06,20,37,10.40
2016,11,06,20,38,10.50
2016,11,06,20,39,10.50
2016,11,06,20,40,10.50
2016,11,06,20,41,10.40
2016,11,06,20,42,10.40
2016,11,06,20,43,10.40
2016,11,06,20,44,10.40
2016,11,06,20,45,10.40
2016,11,06,20,46,10.40
2016,11,06,20,47,10.40
2016,11,06,20,48,10.40
2016,11,06,20,49,10.40
2016,11,06,20,50,10.40
2016,11,06,20,51,10.40
2016,11,06,20,52,10.40
2016,11,06,20,53,10.40
2016,11,06,20,54,10.40
2016,11,06,20,55,10.40
2016,11,06,20,56,10.40
2016,11,06,20,57,10.40
2016,11,06,20,58,10.40
2016,11,06,20,59,10.40
2016,11,06,21,00,10.40
2016,11,06,21,01,10.40
2016,11,06,21,02,10.40
2016,11,06,21,03,10.40
2016,11,06,21,04,10.40
2016,11,06,21,05,10.40
2016,11,06,21,06,10.40
2016,11,06,21,07,10.40
2016,11,06,21,08,10.40
2016,11,06,21,09,10.40
2016,11,06,21,10,10.40
2016,11,06,21,11,10.40
2016,11,06,21,12,10.40
2016,11,06,21,13,10.40
2016,11,06,21,14,10.40
2016,11,06,21,15,10.40
2016,11,06,21,16,10.40
2016,11,06,21,17,10.40
2016,11,06,21,18,10.40
2016,11,06,21,19,10.40
2016,11,06,21,20,10.40
2016,11,06,21,21,10.40
2016,11,06,21,22,10.40
2016,11,06,21,23,10.40
2016,11,06,21,24,10.40
2016,11,06,21,25,10.40
2016,11,06,21,26,10.40
2016,11,06,21,27,10.40
2016,11,06,21,28,10.40
2016,11,06,21,29,10.50
2016,11,06,21,30,10.40
2016,11,06,21,31,10.50
2016,11,06,21,32,10.50
2016,11,06,21,33,10.50
2016,11,06,21,34,10.40
2016,11,06,21,35,10.50
2016,11,06,21,36,10.50
2016,11,06,21,37,10.50
2016,11,06,21,38,10.50
2016,11,06,21,39,10.50
2016,11,06,21,40,10.50
2016,11,06,21,41,10.50
2016,11,06,21,42,10.50
2016,11,06,21,43,10.50
2016,11,06,21,44,10.50
2016,11,06,21,45,10.50
2016,11,06,21,46,10.50
2016,11,06,21,47,10.50
2016,11,06,21,48,10.50
2016,11,06,21,49,10.50
2016,11,06,21,50,10.50
2016,11,06,21,51,10.50
2016,11,06,21,52,10.50
2016,11,06,21,53,10.50
2016,11,06,21,54,10.50
2016,11,06,21,55,10.50
2016,11,06,21,56,10.50
2016,11,06,21,57,10.50
2016,11,06,21,58,10.40
2016,11,06,21,59,10.40
2016,11,06,22,00,10.40
2016,11,06,22,01,10.40
2016,11,06,22,02,10.40
2016,11,06,22,03,10.50
2016,11,06,22,04,10.50
2016,11,06,22,05,10.50
2016,11,06,22,06,10.50
2016,11,06,22,07,10.50
2016,11,06,22,08,10.50
2016,11,06,22,09,10.50
2016,11,06,22,10,10.40
2016,11,06,22,11,10.40
2016,11,06,22,12,10.40
2016,11,06,22,13,10.40
2016,11,06,22,14,10.40
2016,11,06,22,15,10.40
2016,11,06,22,16,10.40
2016,11,06,22,17,10.40
2016,11,06,22,18,10.40
2016,11,06,22,19,10.40
2016,11,06,22,20,10.40
2016,11,06,22,21,10.40
2016,11,06,22,22,10.40
2016,11,06,22,23,10.40
2016,11,06,22,24,10.40
2016,11,06,22,25,10.40
2016,11,06,22,26,10.40
2016,11,06,22,27,10.40
2016,11,06,22,28,10.40
2016,11,06,22,29,10.40
2016,11,06,22,30,10.40
2016,11,06,22,31,10.40
2016,11,06,22,32,10.40
2016,11,06,22,33,10.40
2016,11,06,22,34,10.40
2016,11,06,22,35,10.40
2016,11,06,22,36,10.40
2016,11,06,22,37,10.40
2016,11,06,22,38,10.40
2016,11,06,22,39,10.40
2016,11,06,22,40,10.40
2016,11,06,22,41,10.40
2016,11,06,22,42,10.40
2016,11,06,22,43,10.40
2016,11,06,22,44,10.40
2016,11,06,22,45,10.40
2016,11,06,22,46,10.40
2016,11,06,22,47,10.40
2016,11,06,22,48,10.40
2016,11,06,22,49,10.40
2016,11,06,22,50,10.40
2016,11,06,22,51,10.40
2016,11,06,22,52,10.40
2016,11,06,22,53,10.40
2016,11,06,22,54,10.40
2016,11,06,22,55,10.40
2016,11,06,22,56,10.40
2016,11,06,22,57,10.40
2016,11,06,22,58,10.40
2016,11,06,22,59,10.40
2016,11,06,23,00,10.40
2016,11,06,23,01,10.40
2016,11,06,23,02,10.40
2016,11,06,23,03,10.40
2016,11,06,23,04,10.40
2016,11,06,23,05,10.40
2016,11,06,23,06,10.40
2016,11,06,23,07,10.40
2016,11,06,23,08,10.40
2016,11,06,23,09,10.40
2016,11,06,23,10,10.40
2016,11,06,23,11,10.40
2016,11,06,23,12,10.40
2016,11,06,23,13,10.40
2016,11,06,23,14,10.40
2016,11,06,23,15,10.40
2016,11,06,23,16,10.40
2016,11,06,23,17,10.40
2016,11,06,23,18,10.40
2016,11,06,23,19,10.40
2016,11,06,23,20,10.40
2016,11,06,23,21,10.40
2016,11,06,23,22,10.40
2016,11,06,23,23,10.40
2016,11,06,23,24,10.40
2016,11,06,23,25,10.40
2016,11,06,23,26,10.40
2016,11,06,23,27,10.40
2016,11,06,23,28,10.40
2016,11,06,23,29,10.40
2016,11,06,23,30,10.40
2016,11,06,23,31,10.40
2016,11,06,23,32,10.40
2016,11,06,23,33,10.40
2016,11,06,23,34,10.40
2016,11,06,23,35,10.40
2016,11,06,23,36,10.40
2016,11,06,23,37,10.40
2016,11,06,23,38,10.40
2016,11,06,23,39,10.40
2016,11,06,23,40,10.40
2016,11,06,23,41,10.40
2016,11,06,23,42,10.40
2016,11,06,23,43,10.40
2016,11,06,23,44,10.40
2016,11,06,23,45,10.40
2016,11,06,23,46,10.40
2016,11,06,23,47,10.40
2016,11,06,23,48,10.40
2016,11,06,23,49,10.40
2016,11,06,23,50,10.40
2016,11,06,23,51,10.40
2016,11,06,23,52,10.40
2016,11,06,23,53,10.40
2016,11,06,23,54,10.40
2016,11,06,23,55,10.40
2016,11,06,23,56,10.40
2016,11,06,23,57,10.40
2016,11,06,23,58,10.40
2016,11,06,23,59,10.40
